Chadron, NE

10:31 PM MDT on September 20, 2017 (GMT -0600)
Chadron Municipal

Weather History for KCDR - May, 2013

Change the Weather History Date:

Sunday, May 26, 2013

  Actual Average Record
Temperature  
Mean Temperature 64 °F 59 °F  
Max Temperature 71 °F 74 °F 98 °F (1969)
Min Temperature 56 °F 45 °F 32 °F (1975)
Degree Days  
Heating Degree Days 1 7  
Month to date heating degree days 236 274  
Since 1 July heating degree days 6787 7037  
Cooling Degree Days 0 1  
Month to date cooling degree days 28 10  
Year to date cooling degree days 28 12  
Growing Degree Days 13 (Base 50)    
Moisture  
Dew Point 56 °F    
Average Humidity 79    
Maximum Humidity 100    
Minimum Humidity 57    
Precipitation  
Precipitation 0.00 in 0.09 in 1.75 in (1955)
Month to date precipitation 0.69 2.25  
Year to date precipitation 5.50 6.43  
Sea Level Pressure  
Sea Level Pressure 29.85 in    
Wind  
Wind Speed 10 mph (NNE)    
Max Wind Speed 25 mph    
Max Gust Speed 32 mph    
Visibility 8 miles    
Events      
T = Trace of Precipitation, MM = Missing Value Source: NWS Daily Summary

Daily Weather History Graph

Daily Weather History Graph

Search for Another Location

Airport or City:

Trip Planner

Search our weather history database for the weather conditions in past years. The results will help you decide how hot, cold, wet, or windy it might be!

Date:

Astronomy

May. 26, 2013 Rise Set
Actual Time 5:19 AM MDT 8:19 PM MDT
Civil Twilight 4:46 AM MDT 8:53 PM MDT
Nautical Twilight 4:03 AM MDT 9:36 PM MDT
Astronomical Twilight 3:12 AM MDT 10:27 PM MDT
Moon 10:08 PM MDT (5/26) 6:51 AM MDT (5/26)
Length of Visible Light 16h 07m
Length of Day
14h 59m
Waning Gibbous, 96% of the Moon is Illuminated
May 26
Waning Gibbous
May 31
Last Quarter
Jun 8
New
Jun 16
First Quarter
Jun 23
Full

Hourly Weather History & Observations

Time (MDT) Temp. Dew Point Humidity Pressure Visibility Wind Dir Wind Speed Gust Speed Precip Events Conditions
12:53 AM 70.0 °F 55.0 °F 59% 29.72 in 10.0 mi South 16.1 mph 24.2 mph N/A   Clear
1:53 AM 70.0 °F 54.0 °F 57% 29.71 in 10.0 mi South 18.4 mph 26.5 mph N/A   Clear
2:53 AM 70.0 °F 53.1 °F 55% 29.68 in 10.0 mi South 20.7 mph 28.8 mph N/A   Clear
3:53 AM 64.9 °F 53.1 °F 65% 29.70 in 10.0 mi SW 11.5 mph - N/A   Clear
4:53 AM 63.0 °F 54.0 °F 72% 29.75 in 10.0 mi NW 9.2 mph 20.7 mph N/A   Clear
5:53 AM 60.1 °F 48.0 °F 64% 29.81 in 10.0 mi West 4.6 mph - N/A   Clear
6:53 AM 57.0 °F 48.9 °F 74% 29.82 in 10.0 mi West 10.4 mph - N/A   Clear
7:34 AM 59.0 °F 53.6 °F 82% 29.89 in 10.0 mi NW 9.2 mph - N/A   Mostly Cloudy
7:53 AM 59.0 °F 55.0 °F 87% 29.86 in 8.0 mi NW 9.2 mph - N/A   Overcast
8:53 AM 59.0 °F 57.0 °F 93% 29.89 in 5.0 mi NNE 13.8 mph - N/A   Overcast
9:05 AM 57.2 °F 55.4 °F 94% 29.94 in 4.0 mi North 16.1 mph - N/A   Overcast
9:23 AM 57.2 °F 55.4 °F 94% 29.93 in 2.0 mi NNE 15.0 mph - N/A   Overcast
9:38 AM 57.2 °F 55.4 °F 94% 29.94 in 1.5 mi North 17.3 mph 25.3 mph N/A   Overcast
9:53 AM 55.9 °F 55.0 °F 97% 29.90 in 1.5 mi NNE 16.1 mph - N/A   Overcast
10:18 AM 55.4 °F 55.4 °F 100% 29.95 in 3.0 mi NNE 10.4 mph - N/A   Overcast
10:53 AM 57.9 °F 55.0 °F 90% 29.91 in 9.0 mi NNE 10.4 mph - N/A   Overcast
11:01 AM 57.2 °F 55.4 °F 94% 29.95 in 9.0 mi NNE 9.2 mph - N/A   Overcast
11:53 AM 59.0 °F 55.0 °F 87% 29.91 in 10.0 mi NNE 6.9 mph - N/A   Overcast
12:53 PM 61.0 °F 55.9 °F 83% 29.89 in 10.0 mi NNW 5.8 mph - N/A   Overcast
1:13 PM 62.6 °F 55.4 °F 77% 29.93 in 10.0 mi North 4.6 mph - N/A   Overcast
1:53 PM 63.0 °F 55.9 °F 78% 29.87 in 10.0 mi North 3.5 mph - N/A   Overcast
2:34 PM 64.4 °F 57.2 °F 77% 29.90 in 10.0 mi Variable 3.5 mph - N/A   Overcast
2:53 PM 66.0 °F 57.0 °F 73% 29.84 in 10.0 mi NE 3.5 mph - N/A   Overcast
3:53 PM 69.1 °F 57.9 °F 68% 29.82 in 10.0 mi East 5.8 mph - N/A   Overcast
4:32 PM 71.6 °F 59.0 °F 64% 29.86 in 10.0 mi NE 9.2 mph - N/A   Scattered Clouds
4:53 PM 71.1 °F 59.0 °F 66% 29.81 in 10.0 mi NE 6.9 mph - N/A   Partly Cloudy
5:53 PM 68.0 °F 59.0 °F 73% 29.80 in 10.0 mi NE 11.5 mph - N/A   Clear
6:53 PM 66.9 °F 59.0 °F 76% 29.81 in 10.0 mi NNE 10.4 mph - N/A   Clear
7:53 PM 63.0 °F 57.9 °F 84% 29.83 in 10.0 mi NNE 10.4 mph - N/A   Clear
8:50 PM 62.6 °F 57.2 °F 82% 29.87 in 9.0 mi NNE 12.7 mph - N/A   Mostly Cloudy
8:53 PM 62.1 °F 57.9 °F 86% 29.84 in 9.0 mi North 12.7 mph - N/A   Mostly Cloudy
9:05 PM 62.6 °F 57.2 °F 82% 29.88 in 9.0 mi North 11.5 mph - N/A   Overcast
9:53 PM 62.1 °F 57.9 °F 86% 29.87 in 9.0 mi North 9.2 mph - N/A   Overcast
10:09 PM 62.6 °F 57.2 °F 82% 29.88 in 9.0 mi NE 11.5 mph - N/A   Overcast
10:53 PM 61.0 °F 59.0 °F 93% 29.82 in 6.0 mi East 15.0 mph - N/A   Overcast
11:01 PM 60.8 °F 59.0 °F 94% 29.85 in 5.0 mi East 10.4 mph - N/A   Overcast
11:45 PM 62.6 °F 60.8 °F 94% 29.82 in 7.0 mi East 8.1 mph - N/A   Overcast
11:53 PM 62.1 °F 60.1 °F 93% 29.78 in 8.0 mi ENE 6.9 mph - N/A   Overcast